MPEC 2004-C30 : 2004 CC

The following Minor Planet Electronic Circular may be linked-to from your own Web pages, but must not otherwise be redistributed electronically.


Read MPEC 2004-C29 Read MPEC 2004-C31


M.P.E.C. 2004-C30                                Issued 2004 Feb. 6, 17:23 UT

     The Minor Planet Electronic Circulars contain information on unusual
         minor planets and routine data on comets.  They are published
   on behalf of Commission 20 of the International Astronomical Union by the
          Minor Planet Center, Smithsonian Astrophysical Observatory,
                          Cambridge, MA 02138, U.S.A.

         Supported in part by the Steven and Michele Kirsch Foundation
             Prepared using the Tamkin Foundation Computer Network

                              MPC@CFA.HARVARD.EDU
          URL http://cfa-www.harvard.edu/iau/mpc.html  ISSN 1523-6714

                                    2004 CC

Observations:
     K04C00C* C2004 02 02.40598 12 01 07.50 +34 21 01.4          18.5   EC030704
     K04C00C  C2004 02 02.41842 12 01 14.46 +34 18 43.7          18.8   EC030704
     K04C00C  C2004 02 02.43082 12 01 21.43 +34 16 26.2          19.0   EC030704
     K04C00C  C2004 02 02.44324 12 01 28.58 +34 14 08.2          18.7   EC030704
     K04C00C  C2004 02 02.45651 12 01 36.09 +34 11 39.0          18.7   EC030704
     K04C00C  C2004 02 03.40826 12 12 02.87 +31 03 10.1          18.4   EC030704
     K04C00C  C2004 02 03.42035 12 12 09.90 +31 00 39.7          18.1   EC030704
     K04C00C  C2004 02 03.43276 12 12 17.08 +30 58 02.1          18.6   EC030704
     K04C00C  C2004 02 03.44487 12 12 24.11 +30 55 28.8          18.5   EC030704
     K04C00C  C2004 02 05.33430 12 33 52.99 +23 26 45.8          18.1 R EC030H06
     K04C00C  C2004 02 05.33526 12 33 53.54 +23 26 30.0          18.2 R EC030H06
     K04C00C  C2004 02 05.33671 12 33 54.44 +23 26 08.1          17.6 R EC030H06
     K04C00C  C2004 02 05.33815 12 33 55.39 +23 25 45.4          17.8 R EC030H06
     K04C00C  C2004 02 06.30525 12 45 11.29 +18 57 51.3          18.1 R EC030854
     K04C00C  C2004 02 06.30955 12 45 14.11 +18 56 35.8          18.3 R EC030854
     K04C00C  C2004 02 06.31386 12 45 16.82 +18 55 24.7          18.3 R EC030854

Observer details:
704 Lincoln Laboratory ETS, New Mexico.  Observers M. Blythe, F. Shelly,
    M. Bezpalko, R. Huber, L. Manguso, D. Torres, R. Kracke, M. McCleary,
    H. Stange, A. Milner.  Measurers J. Stuart, R. Sayer, J. Evans, J. Kommers.
    1.0-m f/2.15 reflector + CCD.
854 Sabino Canyon Observatory, Tucson.  Observer J. E. McGaha.  0.356-m f/10.0
    Schmidt-Cassegrain + CCD.
H06 New Mexico Skies Observatory.  Observer R. Hutsebaut.

Orbital elements:
2004 CC
Epoch 2004 July 14.0 TT = JDT 2453200.5                 MPC
M  78.56963              (2000.0)            P               Q
n   0.57673152     Peri.  199.28544     -0.95748740     -0.27790995
a   1.4293994      Node   324.28898     +0.27901724     -0.82407703
e   0.3085177      Incl.    7.61567     +0.07326161     -0.49362243
P   1.71           H   23.6           G   0.15           U   7
Residuals in seconds of arc
040202 704  0.4+  0.2+    040203 704  0.8+  1.0+    040205 H06  0.2+  0.1-
040202 704  0.7-  0.3-    040203 704  0.2+  0.1+    040206 854  0.8+  0.1-
040202 704  1.3-  0.4-    040203 704  0.1-  0.5+    040206 854  1.0+  2.3-
040202 704  0.1+  0.1+    040205 H06  0.3+  0.5+    040206 854  0.4-  0.2+
040202 704  0.1-  0.4-    040205 H06  0.4-  0.4-
040203 704  1.1+  0.5-    040205 H06  0.5-  0.2+

Ephemeris:
2004 CC                  a,e,i = 1.44, 0.31, 8                   q = 0.9885
Date    TT    R. A. (2000) Decl.     Delta      r     Elong.  Phase     V
2004 02 05    12 29.90   +24 54.3    0.041    1.014   133.0    45.2    18.4
2004 02 06    12 41.44   +20 26.5    0.040    1.012   131.1    47.2    18.4
2004 02 07    12 53.14   +15 32.4    0.038    1.010   128.8    49.6    18.4
2004 02 08    13 04.95   +10 15.8    0.037    1.008   126.0    52.3    18.4
2004 02 09    13 16.82   +04 42.7    0.036    1.007   122.8    55.5    18.4
2004 02 10    13 28.69   -00 58.7    0.036    1.005   119.4    58.8    18.5
2004 02 11    13 40.51   -06 39.3    0.036    1.003   115.8    62.4    18.6
2004 02 12    13 52.22   -12 09.8    0.037    1.002   112.2    65.9    18.8
2004 02 13    14 03.77   -17 22.9    0.038    1.000   108.7    69.2    18.9
2004 02 14    14 15.11   -22 13.0    0.040    0.999   105.4    72.4    19.1
2004 02 15    14 26.20   -26 37.1    0.041    0.997   102.5    75.2    19.3
2004 02 16    14 37.02   -30 34.5    0.043    0.996    99.8    77.8    19.5
2004 02 17    14 47.52   -34 05.8    0.046    0.995    97.4    80.0    19.7
2004 02 18    14 57.70   -37 12.6    0.048    0.994    95.4    81.8    19.9
2004 02 19    15 07.53   -39 57.2    0.051    0.993    93.6    83.4    20.0
2004 02 20    15 17.01   -42 22.0    0.054    0.992    92.1    84.8    20.2
2004 02 21    15 26.13   -44 29.2    0.057    0.991    90.8    85.9    20.4
2004 02 22    15 34.90   -46 21.2    0.060    0.991    89.8    86.8    20.5
2004 02 23    15 43.32   -47 59.8    0.063    0.990    88.9    87.5    20.6
2004 02 24    15 51.39   -49 26.8    0.066    0.990    88.1    88.0    20.8
2004 02 25    15 59.13   -50 43.9    0.069    0.989    87.5    88.5    20.9
2004 02 26    16 06.55   -51 52.2    0.073    0.989    87.0    88.8    21.0
2004 02 27    16 13.65   -52 53.0    0.076    0.989    86.6    89.0    21.1
2004 02 28    16 20.46   -53 47.2    0.079    0.989    86.3    89.1    21.2
2004 02 29    16 26.99   -54 35.6    0.083    0.988    86.1    89.1    21.3
2004 03 01    16 33.25   -55 19.1    0.086    0.989    86.0    89.0    21.4
2004 03 02    16 39.25   -55 58.1    0.089    0.989    85.9    88.9    21.5
2004 03 03    16 45.01   -56 33.3    0.093    0.989    85.9    88.8    21.5
2004 03 04    16 50.54   -57 05.1    0.096    0.989    85.9    88.5    21.6
2004 03 05    16 55.85   -57 33.9    0.099    0.990    86.0    88.3    21.7
2004 03 06    17 00.96   -58 00.0    0.103    0.990    86.1    88.0    21.7

Timothy B. Spahr             (C) Copyright 2004 MPC           M.P.E.C. 2004-C30

Read MPEC 2004-C29 Read MPEC 2004-C31


Our Web policy. Index to the CBAT/MPC/ICQ pages.

MPC